• In Kazakhstan
  • List of Countries
  • For 7 days
  • Water Temperature
  • Satellite Maps
  • Weather Map
  • News
  • Weather Widgets
  • user-avatar
    Login

    Hourly Weather Sobkowice

    Today, 20 March, Wednesday

    Time Temperature Precipitation Wind Pressure Humidity
    00:00 +2°C° 0 mm 2 mps 759 mmHg 76%
    01:00 0°C° 0 mm 3 mps 759 mmHg 79%
    02:00 +1°C° 0 mm 2 mps 759 mmHg 81%
    03:00 +1°C° 0 mm 2 mps 759 mmHg 83%
    04:00 -1°C° 0 mm 2 mps 759 mmHg 85%
    05:00 +1°C° 0 mm 2 mps 760 mmHg 84%
    06:00 +1°C° 0 mm 2 mps 760 mmHg 83%
    07:00 +1°C° 0 mm 2 mps 761 mmHg 82%
    08:00 +3°C° 0 mm 2 mps 761 mmHg 74%
    09:00 +5°C° 0 mm 2 mps 761 mmHg 66%
    10:00 +7°C° 0 mm 3 mps 761 mmHg 57%
    11:00 +8°C° 0 mm 3 mps 761 mmHg 52%
    12:00 +9°C° 0 mm 3 mps 761 mmHg 48%
    13:00 +9°C° 0 mm 3 mps 761 mmHg 43%
    14:00 +10°C° 0 mm 3 mps 761 mmHg 42%
    15:00 +10°C° 0 mm 3 mps 761 mmHg 41%
    16:00 +10°C° 0 mm 3 mps 761 mmHg 41%
    17:00 +9°C° 0 mm 2 mps 761 mmHg 46%
    18:00 +7°C° 0 mm 2 mps 761 mmHg 52%
    19:00 +7°C° 0 mm 1 mps 761 mmHg 57%
    20:00 +6°C° 0 mm 2 mps 761 mmHg 59%
    21:00 +5°C° 0 mm 2 mps 761 mmHg 61%
    22:00 +5°C° 0 mm 2 mps 762 mmHg 63%
    23:00 +4°C° 0 mm 2 mps 762 mmHg 63%

    Tomorrow, 21 March, Thursday

    Time Temperature Precipitation Wind Pressure Humidity
    00:00 +4°C° 0 mm 2 mps 762 mmHg 63%
    01:00 +4°C° 0 mm 2 mps 762 mmHg 63%
    02:00 +4°C° 0 mm 2 mps 762 mmHg 63%
    03:00 +3°C° 0 mm 3 mps 762 mmHg 62%
    04:00 +3°C° 0 mm 3 mps 761 mmHg 62%
    05:00 +4°C° 0 mm 2 mps 762 mmHg 63%
    06:00 +5°C° 0 mm 2 mps 762 mmHg 64%
    07:00 +5°C° 0 mm 2 mps 762 mmHg 66%
    08:00 +5°C° 0 mm 3 mps 762 mmHg 65%
    09:00 +8°C° 0 mm 3 mps 762 mmHg 65%
    10:00 +9°C° 0 mm 3 mps 762 mmHg 64%
    11:00 +11°C° 0 mm 3 mps 762 mmHg 62%
    12:00 +12°C° 0 mm 3 mps 762 mmHg 61%
    13:00 +14°C° 0 mm 3 mps 762 mmHg 59%
    14:00 +14°C° 0 mm 3 mps 761 mmHg 59%
    15:00 +14°C° 0 mm 3 mps 761 mmHg 60%
    16:00 +15°C° 0 mm 2 mps 761 mmHg 61%
    17:00 +14°C° 0 mm 2 mps 761 mmHg 66%
    18:00 +12°C° 0 mm 1 mps 761 mmHg 71%
    19:00 +11°C° 0 mm 1 mps 761 mmHg 76%
    20:00 +11°C° 0 mm 1 mps 761 mmHg 79%
    21:00 +10°C° 0 mm 1 mps 761 mmHg 81%
    22:00 +9°C° 0 mm 1 mps 761 mmHg 84%
    23:00 +9°C° 0 mm 1 mps 761 mmHg 85%

    Day after tomorrow, 22 March, Friday

    Time Temperature Precipitation Wind Pressure Humidity
    00:00 +9°C° 0 mm 1 mps 761 mmHg 86%
    01:00 +8°C° 0 mm 1 mps 761 mmHg 87%
    02:00 +8°C° 0 mm 1 mps 761 mmHg 87%
    03:00 +8°C° 0 mm 1 mps 760 mmHg 87%
    04:00 +8°C° 0 mm 1 mps 760 mmHg 87%
    05:00 +8°C° 0 mm 1 mps 760 mmHg 86%
    06:00 +8°C° 0 mm 1 mps 760 mmHg 85%
    07:00 +8°C° 0 mm 1 mps 760 mmHg 83%
    08:00 +10°C° 0 mm 1 mps 760 mmHg 76%
    09:00 +12°C° 0 mm 1 mps 760 mmHg 69%
    10:00 +14°C° 0 mm 1 mps 760 mmHg 61%
    11:00 +15°C° 0 mm 1 mps 760 mmHg 58%
    12:00 +18°C° 0 mm 1 mps 760 mmHg 54%
    13:00 +19°C° 0 mm 1 mps 759 mmHg 51%
    14:00 +19°C° 0 mm 1 mps 759 mmHg 50%
    15:00 +17°C° 0 mm 0 mps 758 mmHg 48%
    16:00 +17°C° 0 mm 0 mps 758 mmHg 47%
    17:00 +18°C° 0 mm 1 mps 758 mmHg 53%
    18:00 +15°C° 0 mm 1 mps 758 mmHg 58%
    19:00 +14°C° 0 mm 1 mps 757 mmHg 63%
    20:00 +13°C° 0 mm 1 mps 758 mmHg 66%
    21:00 +13°C° 0 mm 2 mps 758 mmHg 68%
    22:00 +12°C° 0 mm 2 mps 758 mmHg 71%
    23:00 +12°C° 0 mm 2 mps 758 mmHg 71%

    23 March, Saturday

    Time Temperature Precipitation Wind Pressure Humidity
    00:00 +10°C° 0 mm 2 mps 757 mmHg 72%
    01:00 +10°C° 0 mm 2 mps 757 mmHg 73%
    02:00 +9°C° 0 mm 2 mps 757 mmHg 73%
    03:00 +9°C° 0 mm 2 mps 757 mmHg 73%
    04:00 +9°C° 0 mm 2 mps 757 mmHg 73%
    05:00 +9°C° 0 mm 2 mps 757 mmHg 72%
    06:00 +9°C° 0 mm 2 mps 757 mmHg 71%
    07:00 +9°C° 0 mm 2 mps 757 mmHg 70%
    08:00 +12°C° 0 mm 2 mps 757 mmHg 64%
    09:00 +14°C° 0 mm 3 mps 757 mmHg 57%
    10:00 +17°C° 0 mm 3 mps 757 mmHg 51%
    11:00 +18°C° 0 mm 3 mps 757 mmHg 49%
    12:00 +19°C° 0 mm 4 mps 757 mmHg 48%
    13:00 +19°C° 0 mm 4 mps 756 mmHg 46%
    14:00 +19°C° 0 mm 4 mps 756 mmHg 48%
    15:00 +19°C° 0 mm 4 mps 756 mmHg 50%
    16:00 +17°C° 0 mm 5 mps 756 mmHg 51%
    17:00 +16°C° 0 mm 5 mps 756 mmHg 59%
    18:00 +14°C° 0 mm 5 mps 757 mmHg 66%
    19:00 +12°C° 0 mm 5 mps 757 mmHg 73%
    20:00 +11°C° 0 mm 4 mps 758 mmHg 71%
    21:00 +10°C° 0 mm 4 mps 758 mmHg 69%
    22:00 +8°C° 0 mm 4 mps 759 mmHg 68%
    23:00 +7°C° 0 mm 4 mps 759 mmHg 62%

    24 March, Sunday

    Time Temperature Precipitation Wind Pressure Humidity
    00:00 +7°C° 0 mm 3 mps 759 mmHg 56%
    01:00 +5°C° 0 mm 3 mps 760 mmHg 51%
    02:00 +6°C° 0 mm 2 mps 760 mmHg 55%
    03:00 +5°C° 0 mm 2 mps 759 mmHg 60%
    04:00 +4°C° 0 mm 2 mps 759 mmHg 65%
    05:00 +5°C° 0 mm 1 mps 759 mmHg 66%
    06:00 +5°C° 0 mm 1 mps 759 mmHg 67%
    07:00 +5°C° 0 mm 1 mps 759 mmHg 68%
    08:00 +6°C° 0 mm 1 mps 759 mmHg 62%
    09:00 +7°C° 0 mm 1 mps 759 mmHg 55%
    10:00 +7°C° 0 mm 2 mps 759 mmHg 49%
    11:00 +8°C° 0 mm 2 mps 759 mmHg 46%
    12:00 +9°C° 0 mm 2 mps 758 mmHg 42%
    13:00 +10°C° 0 mm 2 mps 757 mmHg 39%
    14:00 +11°C° 0 mm 1 mps 757 mmHg 38%
    15:00 +11°C° 0 mm 1 mps 756 mmHg 37%
    16:00 +11°C° 0 mm 1 mps 755 mmHg 36%
    17:00 +10°C° 0 mm 1 mps 755 mmHg 40%
    18:00 +9°C° 0 mm 1 mps 755 mmHg 43%
    19:00 +7°C° 0 mm 0 mps 755 mmHg 47%
    20:00 +6°C° 0 mm 0 mps 754 mmHg 49%
    21:00 +6°C° 0 mm 0 mps 754 mmHg 51%
    22:00 +5°C° 0 mm 0 mps 754 mmHg 52%
    23:00 +6°C° 0 mm 1 mps 754 mmHg 54%

    25 March, Monday

    Time Temperature Precipitation Wind Pressure Humidity
    00:00 +5°C° 0 mm 1 mps 753 mmHg 56%
    01:00 +4°C° 0 mm 2 mps 753 mmHg 59%
    02:00 +4°C° 0 mm 2 mps 752 mmHg 60%
    03:00 +2°C° 0 mm 3 mps 752 mmHg 62%
    04:00 +2°C° 0 mm 3 mps 751 mmHg 64%
    05:00 +1°C° 0 mm 4 mps 751 mmHg 67%
    06:00 +2°C° 0 mm 5 mps 751 mmHg 69%
    07:00 +2°C° 0 mm 5 mps 751 mmHg 71%
    08:00 +3°C° 0 mm 6 mps 751 mmHg 66%
    09:00 +4°C° 0 mm 7 mps 750 mmHg 60%
    10:00 +6°C° 0 mm 8 mps 750 mmHg 54%
    11:00 +7°C° 0 mm 8 mps 749 mmHg 53%
    12:00 +8°C° 0 mm 9 mps 748 mmHg 51%
    13:00 +8°C° 0 mm 9 mps 748 mmHg 49%
    14:00 +8°C° 0 mm 10 mps 747 mmHg 52%
    15:00 +7°C° 0 mm 10 mps 746 mmHg 55%
    16:00 +7°C° 0 mm 10 mps 746 mmHg 58%
    17:00 +6°C° 0.5 mm 10 mps 746 mmHg 62%
    18:00 +5°C° 0.5 mm 9 mps 746 mmHg 65%
    19:00 +4°C° 0.5 mm 8 mps 746 mmHg 69%
    20:00 +2°C° 0 mm 8 mps 746 mmHg 69%
    21:00 +1°C° 0 mm 8 mps 746 mmHg 70%
    22:00 0°C° 0 mm 8 mps 745 mmHg 70%
    23:00 -1°C° 0 mm 8 mps 745 mmHg 70%
    Show more